Regional Weather Roundup
Issued by NWS Sterling, VA

Home | Current Version | Previous Version | Text Only | Print | Product List | Glossary Off
Versions: 1 2 3 4 5 6 7 8 9 10 11 12 13 14 15 16 17 18 19 20 21 22 23 24 25 26 27 28 29 30 31 32 33 34 35 36 37 38 39 40 41 42 43 44 45 46 47 48 49 50

000
ASUS41 KLWX 261510
RWRLWX

REGIONAL WEATHER ROUNDUP
NATIONAL WEATHER SERVICE BALTIMORE MD/WASHINGTON DC
1000 AM EST MON JAN 26 2015

Note: "FAIR" indicates few or no clouds below 12,000 feet
with no significant weather and/or obstructions to visibility.
 TC=TEMPERATURE CELSIUS

 * =Non NWS site. Station does not report precipitation (e.g. rain,
    snow, etc.), thunder, or fog.

DCZ001-MDZ009-015-VAZ040>042-051-053>054-261600-
WASHINGTON METRO

CITY           SKY/WX    TMP DP  RH WIND       PRES   REMARKS
WASHINGTON NAT CLOUDY    37  31  78 NE13      29.81R WCI  29
DULLES         LGT SNOW  33  30  88 E8        29.78S FOG     WCI  26
FT BELVOIR     CLOUDY    36  33  91 VRB5      29.80R
QUANTICO       CLOUDY    37  34  89 E9        29.80R
COLLEGE PARK*  CLOUDY    34  32  93 NE7       29.81R
LEESBURG*      LGT SNOW  32  32 100 NE7       29.80S
MANASSAS*      CLOUDY    36  36 100 E3        29.78R
GAITHERSBURG*  CLOUDY    30  27  86 E6        29.83R

$$

MDZ006>007-011-014-261600-
BALTIMORE METRO

CITY           SKY/WX    TMP DP  RH WIND       PRES   REMARKS
BWI AIRPORT    LGT SNOW  32  29  88 NE14      29.82S FOG     WCI  22
MD SCIENCE CTR   N/A     31  28  89 MISG      29.83S
MARTIN STATE   LGT SNOW  32  30  93 NE6       29.85S
ANNAPOLIS      MIX PCPN  33  30  88 NE10      29.82R FOG     WCI  25
FORT MEADE*    CLOUDY    32  30  93 NE8       29.83S WCI  25

$$

MDZ012-015-019>023-261600-
MARYLAND EASTERN SHORE

CITY           SKY/WX    TMP DP  RH WIND       PRES   REMARKS
OCEAN CITY     CLOUDY    43  39  86 E14G24    29.74F
SALISBURY      CLOUDY    46  38  73 NE12      29.74S
BAY BRIDGE AP* LGT RAIN  32  32 100 NE7       29.81S
CAMBRIDGE*     CLOUDY    37  34  87 NE9G16    29.77R
EASTON*        CLOUDY    36  36 100 E13G24    29.83R WCI  27

$$

MDZ017>025-261600-
SOUTHERN MARYLAND

CITY           SKY/WX    TMP DP  RH WIND       PRES   REMARKS
PATUXENT RIVER CLOUDY    39  36  87 NE9       29.77R
ST INIGOES     CLOUDY    40  33  76 NE13      29.75S
LEONARDTOWN*   CLOUDY    36  34  93 NE5       29.78S

$$

MDZ003>005-261600-
NORTH CENTRAL MARYLAND

CITY           SKY/WX    TMP DP  RH WIND       PRES   REMARKS
FREDERICK*     LGT SNOW  32  27  80 E7        29.85S
HAGERSTOWN APT CLOUDY    29  25  85 NE10      29.80S FOG     WCI  20
WESTMINSTER*   LGT SNOW  28  27  93 E10       29.79F WCI  19

$$

MDZ501>502-261600-
WESTERN MARYLAND

CITY           SKY/WX    TMP DP  RH WIND       PRES   REMARKS
OAKLAND*       CLOUDY    27 N/A N/A SE9       29.61S FOG     WCI  17
CUMBERLAND*    CLOUDY    30  28  93 CALM      29.82R

$$

VAZ025>031-261600-
SHENANDOAH VALLEY

CITY           SKY/WX    TMP DP  RH WIND       PRES   REMARKS
WINCHESTER*    LGT SNOW  34  30  86 E3        29.77R
FRONT ROYAL*   CLOUDY    34  32  93 NE5       29.75R
LURAY*         MIX PCPN  36  36 100 N6        29.73R
NEW MARKET*    CLOUDY    32  32  99 N7        29.73R VSB 3/4
STAUNTON*      LGT SNOW  33  32  95 CALM      29.73R VSB 1
WAYNESBORO*    CLOUDY    32  32  99 CALM      29.70R VSB 1

$$

WVZ021-048>050-054>055-261600-
EASTERN WEST VIRGINIA PANHANDLE

CITY           SKY/WX    TMP DP  RH WIND       PRES   REMARKS
MARTINSBURG    LGT SNOW  30  26  85 N8        29.80R VSB 3/4 WCI  22
PETERSBURG*    LGT SNOW  33  33  99 N6        29.75R

$$

VAZ036>039-050-261600-
CENTRAL FOOTHILLS

CITY           SKY/WX    TMP DP  RH WIND       PRES   REMARKS
CHARLOTTESVILL LGT RAIN  36  34  92 N5        29.73R FOG
CULPEPER*      LGT RAIN  37  37 100 NE5       29.77R
ORANGE*        LGT RAIN  39  37  93 N3        29.76R
GORDONSVILLE*  CLOUDY    38  37  98 N5        29.73S FOG
WARRENTON*     RAIN      37  37 100 NE6       29.77R

$$

VAZ055>057-261600-
NORTH AND CENTRAL PIEDMONT

CITY           SKY/WX    TMP DP  RH WIND       PRES   REMARKS
FREDERICKSBRG* LGT RAIN  39  39 100 NE6       29.76R
STAFFORD*      LGT RAIN  37  32  81 E8        29.81R

$$

NCZ024-NYZ072-PAZ021-071-VAZ022-071-261600-
OTHER REGIONAL OBSERVATIONS

CITY           SKY/WX    TMP DP  RH WIND       PRES   REMARKS
NEW YORK CITY  LGT SNOW  24  16  71 E17G25    30.01F WCI  11
PHILADELPHIA   LGT SNOW  28  23  81 NE17G25   29.90F WCI  16
PITTSBURGH     SNOW      26  24  92 N8        29.70R VSB 1/2 WCI  18
ROANOKE        CLOUDY    40  35  83 CALM      29.69F
RICHMOND       CLOUDY    43  40  89 NE5       29.73S
RALEIGH        PTSUNNY   44  41  89 NE5       29.64F

$$

ANZ530>537-261600-
MARINE OBSERVATIONS

STATION/POSITION TIME  TEMP    WIND        PRES
                       AIR SEA DIR/SP/G
                 (UTC) (F)     (DEG/KT/KT) (MB)
THOMAS PT LIGHT  1500   33 37   60/ 14/ 16 1010.5R
BALT KEY BRIDGE  1500   31      50/ 11/ 13 1010.0R
COVE POINT       1500   36      60/ 11/ 13 1008.1R
LEWISETTA        1500   40 39   70/ 10/ 13 1007.0F
SOLOMONS ISLAND  1500      39                N/A
PINEY POINT      1500           80/ 12/ 17   N/A

$$



USA.gov is the U.S. government's official web portal to all federal, state and local government web resources and services.